[[{"header":{"parameterUnit":"m.s-1","parameterCategory":1,"la1":30.2991,"la2":30.254,"lo1":-89.0895,"lo2":-89.0444,"dy":0.0017,"dx":0.0017,"nx":28,"ny":28,"refTime":"2025-02-28T03:00:00:Z","depth":0,"parameterNumber":2,"parameterNumberName":"U-component_of_WINDS"},"data":[0,0,0,0,0,0,0,0,0,0,0,0,0,0,0,0,0,0,0,0,0,0,0,0,0,0,0,0,0,0,0,0,0,0,0,0,0,0,0,0,0,0,0,0,0,0,0,0,0,0,0,0,0,0,0,0,0,0,-0.7283,-0.7281,0,-0.7133,-0.7131,-0.7129,-0.7101,-0.7102,-0.7103,-0.7104,-0.6949,-0.6943,-0.6938,0,0,0,0,0,0,0,0,0,0,0,0,0,-0.7547,-0.7542,-0.7283,-0.7281,-0.7279,-0.7133,-0.7131,-0.7129,-0.71,-0.7102,-0.7103,-0.7105,-0.695,-0.6944,-0.6938,0,0,0,0,0,0,0,0,0,0,0,0,0,-0.7418,-0.754,-0.7283,-0.7248,-0.7243,-0.7133,-0.7131,-0.7128,-0.71,-0.7102,-0.7104,-0.7105,-0.6952,-0.6945,-0.6937,-0.6852,0,0,-0.6913,-0.6909,0,0,0,0,0,0,0,0,-0.7425,-0.7408,-0.7255,-0.725,-0.7244,-0.7137,-0.7167,-0.7035,-0.71,-0.7154,-0.7104,-0.7106,-0.701,-0.6997,-0.6965,-0.6845,-0.6838,-0.6912,-0.6907,-0.6904,-0.6902,0,0,0,0,0,0,0,-0.7434,-0.7414,-0.7223,-0.7253,-0.7246,-0.7239,-0.7223,-0.7142,-0.7074,-0.715,-0.7147,-0.713,-0.7007,-0.6973,-0.6961,-0.6836,-0.6912,-0.6905,-0.69,-0.6897,-0.664,-0.6638,0,0,0,0,0,0,-0.7449,-0.7422,-0.7228,-0.7219,-0.7341,-0.7233,-0.7215,-0.717,-0.7074,-0.7062,-0.7128,-0.7129,-0.6985,-0.697,-0.6956,-0.6851,-0.6904,-0.6897,-0.6892,-0.6642,-0.664,-0.6638,0,0,0,0,0,0,-0.7455,-0.7432,-0.7234,-0.732,-0.7294,-0.7227,-0.7176,-0.7166,-0.7131,-0.7058,-0.7046,-0.7105,-0.6986,-0.6967,-0.6878,-0.6845,-0.6893,-0.6886,-0.6645,-0.6642,-0.6639,-0.664,0,0,0,0,0,0,-0.7463,-0.7435,-0.7401,-0.7319,-0.729,-0.7159,-0.7174,-0.7162,-0.7118,-0.7117,-0.7034,-0.7022,-0.6986,-0.689,-0.6871,-0.6835,-0.688,-0.6648,-0.6643,-0.664,-0.6643,-0.6638,-0.6633,0,0,0,0,0,-0.7472,-0.7407,-0.74,-0.7376,-0.7247,-0.7158,-0.7141,-0.7101,-0.7115,-0.7081,-0.7035,-0.7024,-0.6852,-0.6882,-0.6859,-0.6821,-0.6649,-0.6645,-0.664,-0.6645,-0.6639,-0.6633,0,0,0,0,0,0,-0.7485,-0.7395,-0.7386,-0.7292,-0.7233,-0.7153,-0.7109,-0.7095,-0.703,-0.7032,-0.6986,-0.6968,-0.6883,-0.6843,-0.6877,-0.6735,-0.6752,-0.6742,-0.6763,-0.6756,-0.6752,-0.6763,-0.6873,0,0,0,0,0,-0.7478,-0.7413,-0.7338,-0.7262,-0.7233,-0.7176,-0.7136,-0.7111,-0.7048,-0.7022,-0.6969,-0.6908,-0.684,-0.6796,-0.673,-0.6638,-0.662,-0.66,-0.6595,-0.6592,-0.6584,-0.6534,-0.6525,-0.6622,-0.6622,-0.6622,0,0,-0.746,-0.7403,-0.7365,-0.7264,-0.7214,-0.7149,-0.7155,-0.7085,-0.7036,-0.7011,-0.6925,-0.6885,-0.6813,-0.6723,-0.6681,-0.6687,-0.6553,-0.6586,-0.6583,-0.6577,-0.6528,-0.6519,-0.6511,-0.6619,-0.662,-0.662,0,0,-0.7395,-0.7345,-0.7277,-0.7229,-0.7155,-0.7119,-0.7103,-0.7025,-0.6997,-0.691,-0.6891,-0.6833,-0.6716,-0.6667,-0.6626,-0.6546,-0.6534,-0.6526,-0.65,-0.6451,-0.6444,-0.6437,-0.6409,-0.6399,-0.6518,-0.6518,-0.6518,0,-0.7382,-0.7283,-0.7244,-0.7175,-0.7132,-0.7108,-0.704,-0.6995,-0.6903,-0.6874,-0.6883,-0.6738,-0.6688,-0.6587,-0.6568,-0.6536,-0.6516,-0.6534,-0.6448,-0.6441,-0.6433,-0.6406,-0.6396,-0.6518,-0.6518,-0.6518,-0.6518,0,-0.7272,-0.7203,-0.7157,-0.7071,-0.7022,-0.6954,-0.6906,-0.6861,-0.6842,-0.6804,-0.6717,-0.6657,-0.6579,-0.6553,-0.6533,-0.645,-0.6456,-0.6457,-0.6474,-0.6424,-0.6398,-0.6387,-0.6517,-0.6517,-0.6518,-0.6518,0,0,-0.7208,-0.7103,-0.7087,-0.7048,-0.6967,-0.6913,-0.6845,-0.6769,-0.6733,-0.6671,-0.6613,-0.6517,-0.6518,-0.6472,-0.6446,-0.6404,-0.6346,-0.641,-0.6408,-0.6401,-0.6252,-0.6252,-0.624,-0.6338,-0.6336,-0.6334,-0.6258,0,-0.7133,-0.701,-0.6975,-0.6872,-0.6809,-0.6787,-0.6727,-0.6672,-0.6636,-0.6577,-0.6537,-0.647,-0.6476,-0.6449,-0.6406,-0.6362,-0.6315,-0.6367,-0.6284,-0.6281,-0.6302,-0.6226,-0.6225,-0.6156,-0.6248,-0.6246,-0.6245,0,-0.7028,-0.6967,-0.6858,-0.6786,-0.6759,-0.6706,-0.6635,-0.6579,-0.6516,-0.6493,-0.6444,-0.6422,-0.6351,-0.6373,-0.6274,-0.631,-0.6275,-0.6248,-0.6245,-0.6235,-0.626,-0.6215,-0.6133,-0.6123,-0.6228,-0.6229,-0.623,0,-0.6994,-0.6883,-0.6804,-0.6771,-0.6686,-0.665,-0.6613,-0.6551,-0.6509,-0.6448,-0.642,-0.6351,-0.6312,-0.626,-0.6221,-0.624,-0.6126,-0.6144,-0.6105,-0.6106,-0.6081,-0.6083,-0.5993,-0.6059,-0.6059,-0.6059,-0.606,0,-0.6914,-0.6848,-0.6787,-0.6739,-0.6665,-0.6626,-0.6554,-0.6516,-0.6462,-0.6406,-0.6383,-0.6331,-0.6282,-0.6224,-0.6193,-0.6117,-0.61,-0.608,-0.6072,-0.6082,-0.6084,-0.6057,-0.6061,-0.6056,-0.6057,-0.6058,-0.6058,0,-0.6861,-0.6818,-0.6731,-0.6658,-0.6639,-0.6588,-0.6526,-0.6478,-0.6443,-0.6372,-0.6353,-0.6297,-0.6228,-0.6184,-0.6095,-0.6075,-0.5992,-0.5986,-0.6013,-0.601,-0.5974,-0.5978,-0.5862,-0.5846,-0.5923,-0.5922,-0.5922,0,-0.6813,-0.6762,-0.6685,-0.6646,-0.6609,-0.6547,-0.6504,-0.6464,-0.6421,-0.6347,-0.6309,-0.6238,-0.6179,-0.607,-0.6021,-0.5954,-0.5946,-0.591,-0.5936,-0.5947,-0.5946,-0.595,-0.5945,-0.5906,-0.5905,-0.5905,-0.5904,0,-0.6731,-0.6713,-0.6653,-0.6586,-0.6536,-0.6481,-0.6426,-0.6396,-0.6347,-0.6299,-0.6229,-0.6183,-0.6094,-0.6025,-0.5954,-0.5916,-0.5902,-0.5897,-0.5885,-0.5894,-0.5912,-0.5902,-0.6002,-0.59,-0.59,-0.59,-0.5901,-0.5901,-0.6679,-0.6634,-0.6574,-0.6508,-0.6463,-0.6413,-0.6365,-0.6325,-0.6265,-0.619,-0.617,-0.6097,-0.6037,-0.594,-0.5902,-0.5844,-0.5849,-0.583,-0.5826,-0.5822,-0.5822,-0.5922,-0.5831,-0.5831,-0.5831,-0.5831,-0.5831,0,-0.6597,-0.6558,-0.6498,-0.6423,-0.6372,-0.6365,-0.6304,-0.6262,-0.6198,-0.6144,-0.6087,-0.6007,-0.5941,-0.5888,-0.582,-0.5784,-0.5776,-0.5767,-0.5769,-0.5761,-0.5821,-0.5839,-0.5775,-0.5775,-0.5775,-0.5775,-0.5775,-0.5775,-0.6549,-0.6472,-0.6447,-0.6349,-0.631,-0.6238,-0.6205,-0.6159,-0.6116,-0.6028,-0.5973,-0.5939,-0.5886,-0.5814,-0.5753,-0.574,-0.5716,-0.5709,-0.5694,-0.575,-0.5757,-0.5763,-0.5779,-0.5704,-0.5704,-0.5639,-0.5638,-0.5638]},{"header":{"parameterUnit":"m.s-1","parameterCategory":1,"la1":30.2991,"la2":30.254,"lo1":-89.0895,"lo2":-89.0444,"dy":0.0017,"dx":0.0017,"nx":28,"ny":28,"refTime":"2025-02-28T03:00:00:Z","depth":0,"parameterNumber":3,"parameterNumberName":"V-component_of_WINDS"},"data":[0,0,0,0,0,0,0,0,0,0,0,0,0,0,0,0,0,0,0,0,0,0,0,0,0,0,0,0,0,0,0,0,0,0,0,0,0,0,0,0,0,0,0,0,0,0,0,0,0,0,0,0,0,0,0,0,0,0,1.5541,1.554,0,1.548,1.5479,1.5479,1.5513,1.5515,1.5517,1.5518,1.5451,1.5447,1.5444,0,0,0,0,0,0,0,0,0,0,0,0,0,1.5683,1.568,1.5541,1.554,1.554,1.548,1.5479,1.5479,1.5513,1.5515,1.5517,1.5519,1.5452,1.5448,1.5444,0,0,0,0,0,0,0,0,0,0,0,0,0,1.5622,1.5679,1.5541,1.555,1.555,1.548,1.5479,1.5478,1.5512,1.5515,1.5518,1.552,1.5453,1.5448,1.5443,1.536,0,0,1.5428,1.5425,0,0,0,0,0,0,0,0,1.5625,1.5616,1.5549,1.5549,1.5549,1.5507,1.5505,1.5438,1.5512,1.5526,1.5518,1.5521,1.5467,1.5461,1.5444,1.5357,1.5354,1.5427,1.5424,1.5422,1.542,0,0,0,0,0,0,0,1.5629,1.5619,1.5517,1.5548,1.5548,1.5555,1.5549,1.5492,1.5483,1.5525,1.5528,1.552,1.5467,1.5448,1.5442,1.5353,1.5427,1.5423,1.542,1.5418,1.5195,1.5192,0,0,0,0,0,0,1.5634,1.5622,1.5519,1.5515,1.5594,1.5551,1.5544,1.5518,1.5484,1.5481,1.5518,1.5522,1.5456,1.5448,1.544,1.534,1.5422,1.5417,1.5414,1.5198,1.5195,1.5191,0,0,0,0,0,0,1.5636,1.5624,1.5521,1.5569,1.5557,1.5545,1.5516,1.5515,1.5496,1.5478,1.5476,1.5501,1.5458,1.5447,1.538,1.5338,1.5415,1.541,1.5201,1.5197,1.5193,1.514,0,0,0,0,0,0,1.564,1.5625,1.5594,1.5568,1.5554,1.5463,1.5513,1.5512,1.5488,1.5493,1.5461,1.5459,1.5459,1.5388,1.5375,1.5333,1.5406,1.5205,1.5199,1.5194,1.5145,1.5135,1.5125,0,0,0,0,0,1.5645,1.5581,1.5592,1.558,1.5516,1.5461,1.5453,1.5455,1.5485,1.5453,1.5441,1.546,1.5346,1.538,1.5367,1.5322,1.5208,1.5201,1.5195,1.515,1.5137,1.5125,0,0,0,0,0,0,1.5599,1.5577,1.559,1.5515,1.549,1.5467,1.5427,1.5441,1.5406,1.5411,1.5415,1.5408,1.5338,1.5323,1.5363,1.524,1.5281,1.5271,1.5252,1.5239,1.5229,1.5233,1.5402,0,0,0,0,0,1.5581,1.554,1.5522,1.5458,1.5445,1.5438,1.5414,1.5419,1.5392,1.5381,1.5364,1.5336,1.5294,1.5266,1.5226,1.5144,1.5137,1.5107,1.5097,1.5089,1.508,1.5035,1.5021,1.517,1.517,1.5171,0,0,1.5542,1.5525,1.5498,1.5448,1.5429,1.5385,1.5429,1.538,1.5347,1.5373,1.5309,1.5296,1.5265,1.519,1.5156,1.5176,1.5037,1.5081,1.5074,1.5069,1.5027,1.5013,1.5,1.5166,1.5167,1.5168,0,0,1.5447,1.5431,1.5375,1.5356,1.5327,1.5323,1.531,1.5285,1.5278,1.5214,1.5233,1.5193,1.512,1.5097,1.5076,1.4974,1.4989,1.4961,1.4907,1.4863,1.4851,1.4841,1.4803,1.479,1.4953,1.4953,1.4952,0,1.5401,1.5337,1.5344,1.5295,1.5272,1.5296,1.5239,1.5219,1.5178,1.5161,1.5184,1.5094,1.5075,1.4995,1.497,1.4952,1.4936,1.4964,1.4853,1.4843,1.4833,1.4797,1.4783,1.4949,1.495,1.495,1.495,0,1.5281,1.5236,1.5195,1.5157,1.5129,1.5076,1.5074,1.5045,1.5053,1.5046,1.4981,1.4959,1.4915,1.4897,1.4903,1.4817,1.483,1.4853,1.4894,1.4815,1.4781,1.4768,1.4944,1.4946,1.4947,1.4947,0,0,1.5154,1.5122,1.5107,1.509,1.506,1.5025,1.4973,1.4932,1.4906,1.4878,1.4833,1.4771,1.4793,1.4769,1.4773,1.4734,1.4654,1.4762,1.4761,1.4742,1.4557,1.4539,1.4523,1.4665,1.4662,1.466,1.4559,0,1.5057,1.4967,1.4973,1.4887,1.4846,1.4869,1.4823,1.4799,1.4792,1.4754,1.4746,1.4702,1.4734,1.472,1.4683,1.4672,1.4617,1.4679,1.4621,1.4619,1.4627,1.4505,1.4486,1.4391,1.4546,1.4544,1.4543,0,1.4931,1.4899,1.4811,1.4788,1.4771,1.473,1.4693,1.4657,1.463,1.4628,1.4602,1.4612,1.4558,1.4602,1.4526,1.4569,1.4546,1.4536,1.4533,1.4526,1.4575,1.4494,1.4361,1.4347,1.4522,1.4524,1.4525,0,1.4845,1.4781,1.472,1.4704,1.4677,1.4647,1.4634,1.4611,1.4586,1.4553,1.4537,1.4497,1.4475,1.4444,1.4443,1.4476,1.4367,1.4411,1.4361,1.4361,1.4335,1.4337,1.4196,1.4323,1.4324,1.4324,1.4324,0,1.4735,1.4679,1.4681,1.4643,1.4581,1.4588,1.4526,1.4516,1.4495,1.4454,1.4472,1.4433,1.4435,1.4395,1.4394,1.4331,1.4321,1.4317,1.4316,1.4314,1.4314,1.4297,1.4303,1.432,1.4321,1.4322,1.4322,0,1.4627,1.4627,1.4561,1.4542,1.4535,1.449,1.4473,1.4436,1.4431,1.438,1.4368,1.4359,1.4314,1.4311,1.4257,1.4256,1.418,1.4188,1.4189,1.419,1.414,1.4144,1.3982,1.396,1.4103,1.4102,1.4101,0,1.4556,1.4514,1.4491,1.4466,1.4452,1.4411,1.4386,1.4392,1.4365,1.4332,1.4299,1.4255,1.422,1.4146,1.4134,1.4093,1.4099,1.4045,1.4093,1.4092,1.4097,1.4099,1.4094,1.4035,1.4034,1.4032,1.4031,0,1.4429,1.4431,1.4396,1.436,1.4331,1.4303,1.4276,1.4254,1.4257,1.4225,1.418,1.4153,1.41,1.4056,1.4016,1.4001,1.4015,1.4017,1.4003,1.3999,1.4001,1.3998,1.4162,1.402,1.4021,1.4022,1.4023,1.4023,1.4337,1.4301,1.4279,1.4239,1.422,1.4195,1.416,1.4152,1.4114,1.4072,1.4078,1.4027,1.4001,1.395,1.3932,1.3891,1.391,1.389,1.3884,1.3879,1.3873,1.4009,1.3884,1.3885,1.3885,1.3885,1.3886,0,1.421,1.4197,1.4161,1.4124,1.4092,1.4112,1.4084,1.4056,1.4011,1.3988,1.3954,1.3901,1.3859,1.3844,1.3803,1.3773,1.3778,1.3762,1.3763,1.3759,1.386,1.3876,1.3758,1.3758,1.3758,1.3758,1.3758,1.3758,1.414,1.4079,1.4079,1.4009,1.3997,1.3949,1.3931,1.3908,1.3889,1.383,1.3796,1.3788,1.3767,1.3724,1.3686,1.3683,1.3666,1.3646,1.3645,1.3739,1.3752,1.3764,1.3779,1.3642,1.3642,1.3547,1.3546,1.3545]}]]